When you browse on this site, cookies collect data to enhance your experience and personalize the content and advertising you see.
Visit our Privacy Policy to learn more. By continuing to use the site, you agree to this use of cookies and data.
  • In Portugal
  • List of Countries
  • For 7 days
  • Water Temperature
  • Satellite Maps
  • Weather Map
  • Weather Widgets
  • user-avatar
    Login

    Hourly Weather Schigrovskiy 1-y

    Today, 23 May, Thursday

    Time Temperature Precipitation Wind Pressure Humidity
    00:00 +15°C° 0 mm 2 mps 738 mmHg 93%
    01:00 +15°C° 0 mm 2 mps 738 mmHg 94%
    02:00 +14°C° 0 mm 2 mps 738 mmHg 94%
    03:00 +14°C° 0 mm 2 mps 738 mmHg 94%
    04:00 +15°C° 0 mm 2 mps 738 mmHg 94%
    05:00 +15°C° 0 mm 2 mps 738 mmHg 95%
    06:00 +16°C° 0.1 mm 2 mps 737 mmHg 90%
    07:00 +18°C° 0.1 mm 2 mps 737 mmHg 85%
    08:00 +19°C° 0 mm 3 mps 737 mmHg 83%
    09:00 +20°C° 0.8 mm 3 mps 737 mmHg 77%
    10:00 +22°C° 0.8 mm 3 mps 737 mmHg 71%
    11:00 +24°C° 0.8 mm 3 mps 737 mmHg 65%
    12:00 +25°C° 0 mm 3 mps 737 mmHg 61%
    13:00 +25°C° 0 mm 2 mps 737 mmHg 57%
    14:00 +26°C° 0 mm 2 mps 736 mmHg 53%
    15:00 +25°C° 1 mm 2 mps 736 mmHg 61%
    16:00 +24°C° 1 mm 3 mps 736 mmHg 69%
    17:00 +22°C° 1 mm 3 mps 736 mmHg 77%
    18:00 +20°C° 0.4 mm 3 mps 736 mmHg 81%
    19:00 +19°C° 0.4 mm 3 mps 736 mmHg 84%
    20:00 +18°C° 0.4 mm 2 mps 737 mmHg 87%
    21:00 +17°C° 0 mm 2 mps 737 mmHg 88%
    22:00 +16°C° 0 mm 2 mps 737 mmHg 90%
    23:00 +16°C° 0 mm 1 mps 737 mmHg 91%

    Tomorrow, 24 May, Friday

    Time Temperature Precipitation Wind Pressure Humidity
    00:00 +15°C° 0 mm 1 mps 737 mmHg 92%
    01:00 +15°C° 0 mm 1 mps 737 mmHg 92%
    02:00 +14°C° 0 mm 1 mps 738 mmHg 93%
    03:00 +14°C° 0 mm 2 mps 738 mmHg 93%
    04:00 +14°C° 0 mm 2 mps 738 mmHg 94%
    05:00 +14°C° 0 mm 2 mps 739 mmHg 95%
    06:00 +14°C° 0 mm 3 mps 739 mmHg 93%
    07:00 +16°C° 0 mm 3 mps 740 mmHg 91%
    08:00 +17°C° 0 mm 4 mps 740 mmHg 89%
    09:00 +15°C° 0 mm 4 mps 740 mmHg 88%
    10:00 +15°C° 0 mm 4 mps 740 mmHg 88%
    11:00 +15°C° 0 mm 5 mps 740 mmHg 87%
    12:00 +15°C° 0 mm 5 mps 740 mmHg 86%
    13:00 +15°C° 0 mm 4 mps 740 mmHg 85%
    14:00 +15°C° 0 mm 4 mps 741 mmHg 84%
    15:00 +15°C° 0 mm 4 mps 741 mmHg 84%
    16:00 +15°C° 0 mm 4 mps 741 mmHg 84%
    17:00 +15°C° 0 mm 4 mps 741 mmHg 85%
    18:00 +15°C° 0.1 mm 4 mps 741 mmHg 86%
    19:00 +14°C° 0.1 mm 4 mps 741 mmHg 87%
    20:00 +14°C° 0.1 mm 3 mps 741 mmHg 88%
    21:00 +13°C° 0.1 mm 4 mps 740 mmHg 91%
    22:00 +13°C° 0.1 mm 4 mps 740 mmHg 93%
    23:00 +12°C° 0.1 mm 4 mps 740 mmHg 95%

    Day after tomorrow, 25 May, Saturday

    Time Temperature Precipitation Wind Pressure Humidity
    00:00 +12°C° 0.1 mm 4 mps 740 mmHg 95%
    01:00 +13°C° 0.1 mm 4 mps 740 mmHg 95%
    02:00 +13°C° 0.1 mm 4 mps 740 mmHg 95%
    03:00 +13°C° 0.3 mm 4 mps 740 mmHg 95%
    04:00 +13°C° 0.3 mm 4 mps 739 mmHg 96%
    05:00 +13°C° 0.3 mm 4 mps 739 mmHg 96%
    06:00 +14°C° 0.1 mm 4 mps 739 mmHg 94%
    07:00 +15°C° 0.1 mm 4 mps 739 mmHg 93%
    08:00 +16°C° 0.1 mm 5 mps 739 mmHg 91%
    09:00 +16°C° 0 mm 5 mps 738 mmHg 88%
    10:00 +17°C° 0 mm 5 mps 738 mmHg 86%
    11:00 +19°C° 0 mm 5 mps 738 mmHg 83%
    12:00 +20°C° 0.2 mm 5 mps 738 mmHg 82%
    13:00 +20°C° 0.2 mm 4 mps 737 mmHg 82%
    14:00 +20°C° 0.2 mm 4 mps 737 mmHg 81%
    15:00 +20°C° 1.4 mm 4 mps 737 mmHg 82%
    16:00 +19°C° 1.4 mm 4 mps 736 mmHg 83%
    17:00 +19°C° 1.4 mm 4 mps 736 mmHg 84%
    18:00 +18°C° 0.1 mm 3 mps 736 mmHg 87%
    19:00 +17°C° 0.1 mm 3 mps 736 mmHg 89%
    20:00 +16°C° 0.1 mm 2 mps 736 mmHg 92%
    21:00 +15°C° 0 mm 2 mps 735 mmHg 92%
    22:00 +15°C° 0 mm 2 mps 735 mmHg 92%
    23:00 +15°C° 0 mm 2 mps 735 mmHg 93%

    26 May, Sunday

    Time Temperature Precipitation Wind Pressure Humidity
    00:00 +14°C° 0 mm 2 mps 735 mmHg 93%
    01:00 +14°C° 0 mm 2 mps 735 mmHg 93%
    02:00 +14°C° 0 mm 2 mps 735 mmHg 93%
    03:00 +14°C° 0 mm 2 mps 735 mmHg 94%
    04:00 +15°C° 0 mm 2 mps 735 mmHg 94%
    05:00 +15°C° 0 mm 2 mps 736 mmHg 95%
    06:00 +16°C° 0 mm 2 mps 736 mmHg 91%
    07:00 +17°C° 0 mm 2 mps 736 mmHg 87%
    08:00 +18°C° 0 mm 3 mps 736 mmHg 84%
    09:00 +19°C° 0 mm 3 mps 736 mmHg 76%
    10:00 +21°C° 0 mm 3 mps 736 mmHg 68%
    11:00 +22°C° 0 mm 3 mps 736 mmHg 61%
    12:00 +22°C° 0.1 mm 3 mps 736 mmHg 60%
    13:00 +22°C° 0.1 mm 3 mps 736 mmHg 59%
    14:00 +22°C° 0.1 mm 4 mps 736 mmHg 58%
    15:00 +22°C° 0.1 mm 3 mps 737 mmHg 61%
    16:00 +22°C° 0.1 mm 3 mps 737 mmHg 63%
    17:00 +21°C° 0.1 mm 3 mps 737 mmHg 66%
    18:00 +19°C° 0 mm 3 mps 737 mmHg 70%
    19:00 +17°C° 0 mm 3 mps 737 mmHg 75%
    20:00 +14°C° 0 mm 3 mps 737 mmHg 79%
    21:00 +13°C° 0 mm 3 mps 738 mmHg 82%
    22:00 +13°C° 0 mm 3 mps 738 mmHg 85%
    23:00 +12°C° 0 mm 3 mps 738 mmHg 87%

    27 May, Monday

    Time Temperature Precipitation Wind Pressure Humidity
    00:00 +11°C° 0 mm 3 mps 738 mmHg 88%
    01:00 +11°C° 0 mm 3 mps 738 mmHg 88%
    02:00 +11°C° 0 mm 3 mps 739 mmHg 88%
    03:00 +11°C° 0 mm 3 mps 739 mmHg 87%
    04:00 +12°C° 0 mm 3 mps 739 mmHg 85%
    05:00 +12°C° 0 mm 3 mps 739 mmHg 83%
    06:00 +14°C° 0 mm 4 mps 739 mmHg 81%
    07:00 +17°C° 0 mm 4 mps 739 mmHg 78%
    08:00 +19°C° 0 mm 5 mps 740 mmHg 75%
    09:00 +19°C° 0.2 mm 5 mps 740 mmHg 73%
    10:00 +20°C° 0.2 mm 5 mps 740 mmHg 71%
    11:00 +21°C° 0.2 mm 5 mps 740 mmHg 69%
    12:00 +21°C° 0.6 mm 5 mps 740 mmHg 71%
    13:00 +22°C° 0.6 mm 5 mps 740 mmHg 72%
    14:00 +22°C° 0.6 mm 5 mps 740 mmHg 73%
    15:00 +22°C° 0.2 mm 4 mps 740 mmHg 74%
    16:00 +22°C° 0.2 mm 4 mps 740 mmHg 75%
    17:00 +22°C° 0.2 mm 3 mps 741 mmHg 76%
    18:00 +20°C° 0.4 mm 3 mps 741 mmHg 82%
    19:00 +19°C° 0.4 mm 3 mps 741 mmHg 87%
    20:00 +17°C° 0.4 mm 2 mps 741 mmHg 92%
    21:00 +17°C° 0.1 mm 2 mps 741 mmHg 93%
    22:00 +16°C° 0.1 mm 2 mps 741 mmHg 94%
    23:00 +16°C° 0.1 mm 2 mps 742 mmHg 95%

    28 May, Tuesday

    Time Temperature Precipitation Wind Pressure Humidity
    00:00 +16°C° 0 mm 2 mps 742 mmHg 95%
    01:00 +15°C° 0 mm 2 mps 742 mmHg 96%
    02:00 +14°C° 0 mm 3 mps 742 mmHg 97%
    03:00 +14°C° 0 mm 3 mps 742 mmHg 96%
    04:00 +14°C° 0 mm 3 mps 742 mmHg 96%
    05:00 +16°C° 0 mm 3 mps 743 mmHg 96%
    06:00 +17°C° 0 mm 3 mps 743 mmHg 92%
    07:00 +19°C° 0 mm 3 mps 743 mmHg 89%
    08:00 +20°C° 0 mm 4 mps 743 mmHg 85%
    09:00 +21°C° 0 mm 4 mps 743 mmHg 80%
    10:00 +23°C° 0 mm 4 mps 743 mmHg 75%
    11:00 +25°C° 0 mm 4 mps 744 mmHg 70%
    12:00 +25°C° 0 mm 4 mps 743 mmHg 68%
    13:00 +26°C° 0 mm 4 mps 743 mmHg 66%
    14:00 +27°C° 0 mm 4 mps 743 mmHg 64%
    15:00 +26°C° 0.1 mm 3 mps 743 mmHg 68%
    16:00 +26°C° 0.1 mm 3 mps 743 mmHg 72%
    17:00 +25°C° 0.1 mm 3 mps 743 mmHg 75%
    18:00 +24°C° 0.2 mm 3 mps 743 mmHg 81%
    19:00 +21°C° 0.2 mm 2 mps 743 mmHg 86%
    20:00 +20°C° 0.2 mm 2 mps 744 mmHg 92%
    21:00 +19°C° 0 mm 2 mps 744 mmHg 92%
    22:00 +19°C° 0 mm 2 mps 744 mmHg 93%
    23:00 +19°C° 0 mm 2 mps 744 mmHg 94%
    Show more